RH
55 42 38 51 51 31 37 36 26 34 34 28 29 34 36 41 40 53 32 37 36 35 44 54 79 77 77 77 77 77 74 72 74 74 76 74 73 73 74 74 73 71 73 75 75 72 74 74 74
35 45 49 47 39 34 38 31 32 32 29 30 34 34 35 50 40 42 40 37 35 33 35 44 82 77 76 77 77 74 70 70 74 75 73 74 73 73 73 74 72 70 74 72 72 77 74 75 76
45 44 52 44 34 35 38 30 30 30 28 34 43 36 41 48 39 38 36 36 34 36 36 55 78 77 76 75 76 72 76 72 73 74 73 74 73 73 72 70 71 72 72 72 74 73 73 72 73
41 57 55 57 44 40 33 28 27 32 32 36 37 48 41 35 39 36 37 35 34 36 36 65 76 74 75 76 72 74 76 76 75 74 73 71 70 72 73 71 71 70 70 70 70 73 75 73 73
38 56 63 48 46 35 29 27 27 33 37 38 34 41 48 45 38 36 38 34 34 32 36 46 76 75 74 72 74 75 75 75 74 72 74 71 72 69 72 73 70 72 71 67 72 72 72 73 73
45 43 52 55 49 39 33 29 30 37 38 38 36 40 53 42 40 37 34 34 30 31 31 42 73 75 74 71 74 75 74 73 74 73 73 72 72 71 68 71 70 70 70 70 70 72 73 72 73
40 47 58 52 53 48 41 33 38 37 36 36 31 39 50 41 39 36 35 32 31 31 33 38 43 64 72 72 72 74 73 75 73 72 72 72 72 69 68 68 68 69 67 68 70 71 72 73 71
38 52 66 58 58 58 46 38 36 37 43 32 28 41 51 43 39 37 33 33 34 33 34 44 39 40 46 47 72 70 71 74 73 72 70 72 68 68 66 71 68 66 66 67 69 70 72 72 72
41 61 74 61 67 56 42 41 40 36 39 32 36 29 33 40 38 36 39 38 37 39 39 54 34 47 62 60 60 66 69 73 76 74 71 64 38 42 48 66 65 64 64 65 66 69 70 70 72
36 51 54 50 61 54 52 42 48 40 39 43 42 36 38 39 39 41 40 37 38 40 41 46 42 52 49 47 60 60 71 70 60 64 55 44 44 52 45 62 69 69 68 70 70 68 67 66 32
39 54 47 50 50 64 48 43 36 37 40 35 44 42 38 38 40 38 35 31 36 39 40 40 53 52 53 74 45 54 65 61 66 58 48 48 43 43 38 43 42 42 60 35 43 45 35 40 31
48 46 45 57 49 54 50 44 44 37 40 34 33 33 34 37 36 34 32 36 40 43 42 41 54 62 70 44 44 46 42 41 42 50 58 55 43 45 44 40 43 44 36 43 41 33 44 41 41
36 48 51 50 49 64 56 56 46 50 38 32 32 33 35 36 36 33 33 37 40 41 41 41 50 64 80 64 44 44 45 38 43 44 54 45 43 48 42 48 40 42 38 38 42 40 40 40 34
37 43 50 50 54 56 76 69 62 69 37 37 35 35 33 35 34 37 38 40 41 41 41 42 47 59 65 62 58 53 44 43 39 39 46 55 42 49 42 43 39 41 40 39 40 44 38 32 30
36 49 50 53 54 64 75 86 77 78 46 38 36 36 36 37 36 40 39 41 41 39 42 46 47 47 56 58 55 46 41 37 39 40 52 52 51 55 52 44 40 40 46 50 45 42 38 30 28
44 42 50 56 56 58 63 89 79 79 65 40 36 36 37 38 38 40 38 38 39 38 48 48 37 44 50 51 51 42 39 39 38 39 42 50 54 55 55 40 39 43 42 39 39 34 32 31 28
38 35 44 63 55 59 60 63 76 75 78 60 36 35 36 38 39 41 38 38 39 41 50 51 47 49 51 59 50 47 51 42 38 40 41 56 52 56 46 39 43 49 40 40 35 35 34 34 28
29 31 39 54 59 58 61 65 61 83 78 76 43 33 35 34 37 39 38 37 38 43 50 59 62 59 59 56 56 44 42 42 41 41 41 55 48 53 53 42 47 45 39 40 40 45 38 34 30
24 28 40 44 56 54 53 56 61 67 78 82 60 39 32 33 32 36 38 37 38 43 49 53 63 69 56 50 45 44 42 44 44 43 53 56 50 57 60 41 46 47 44 54 52 45 50 37 41
23 32 40 46 50 52 52 53 62 67 74 81 70 47 33 30 31 36 38 36 38 43 48 60 63 69 60 49 48 43 43 41 42 44 52 52 49 55 52 58 47 54 42 57 56 56 37 37 40
23 26 34 37 47 48 55 57 68 68 66 81 55 42 32 30 31 36 40 38 38 45 48 55 60 64 63 55 52 59 68 70 53 51 46 49 51 51 59 58 55 55 52 41 54 51 54 37 42
20 23 35 40 39 43 44 43 61 66 70 78 42 43 32 30 31 32 37 39 37 42 45 51 61 65 66 62 56 61 48 46 42 45 44 47 54 54 53 57 55 59 48 56 52 44 55 58 41
22 25 32 33 35 35 36 46 54 60 60 60 52 41 34 30 29 31 34 37 36 39 42 46 59 71 62 66 61 67 55 43 44 44 57 58 62 56 52 58 57 58 47 58 60 58 62 46 45
22 28 34 34 30 36 31 37 42 49 48 40 45 40 36 28 28 30 31 35 37 37 40 45 60 67 64 66 64 67 60 51 45 51 50 44 43 48 56 55 60 60 53 59 53 60 61 63 57
21 21 28 32 34 34 37 42 36 36 33 34 36 41 40 32 28 29 33 35 39 41 43 44 56 66 63 57 58 61 62 61 62 60 49 48 41 40 53 60 61 53 61 57 60 65 60 55 55
20 17 20 44 49 45 42 49 36 30 32 29 29 29 44 36 27 27 32 36 41 42 45 45 52 62 60 59 62 64 67 75 48 54 43 45 40 42 49 57 54 57 58 55 60 51 47 52 50
17 22 15 26 29 30 28 34 33 26 37 36 32 32 39 40 31 28 32 36 39 42 46 47 51 57 56 52 58 64 63 60 51 56 57 48 53 41 51 54 57 56 58 58 59 48 56 56 56
22 16 24 21 49 50 28 32 34 42 48 44 39 39 38 46 49 30 31 35 36 37 40 44 47 53 52 50 52 53 57 59 61 60 64 56 55 58 55 61 59 57 58 59 63 52 58 62 49
26 23 22 20 29 61 43 49 39 55 53 47 40 36 44 43 50 36 34 36 37 38 39 42 46 51 51 50 52 53 51 51 58 71 65 66 66 60 59 60 58 62 60 62 65 63 55 60 60
25 28 22 29 48 31 73 30 42 51 50 45 38 39 38 59 56 43 41 40 42 42 43 47 45 47 48 48 54 53 52 53 50 56 56 59 72 59 63 62 60 59 58 63 64 62 54 62 60
Wind_Speed
10 9 2 6 7 4 10 8 12 13 12 5 9 1 11 11 10 10 15 10 13 13 13 12 9 12 12 13 14 14 15 14 13 14 14 13 14 14 13 12 11 12 13 15 15 14 12 12 12
5 3 4 3 5 9 9 9 14 10 11 13 9 8 4 9 10 15 12 13 11 11 11 13 10 12 12 12 13 14 15 14 14 14 13 13 13 13 13 12 12 12 14 14 14 12 14 15 16
3 1 4 4 0 8 10 10 15 10 13 7 6 8 5 7 14 7 17 14 12 10 11 13 10 11 12 12 13 14 12 13 13 13 13 13 13 13 14 13 13 13 12 14 13 14 14 15 14
3 1 4 5 10 5 8 12 14 16 9 3 10 10 8 10 7 11 15 13 13 11 15 12 9 9 12 13 14 13 12 13 13 13 13 12 13 14 14 13 13 14 14 13 13 13 13 13 14
3 3 1 7 10 11 10 13 13 13 7 7 0 9 12 7 11 17 15 11 12 11 14 14 10 10 14 13 13 12 11 12 13 13 12 12 13 14 13 14 13 13 13 13 11 13 14 13 13
4 3 3 7 12 11 10 9 9 7 9 8 13 17 9 11 15 14 13 11 10 9 11 12 10 10 11 14 11 11 11 11 12 12 12 13 13 12 13 12 12 12 12 13 13 13 13 12 12
1 1 3 11 13 11 8 6 6 6 8 9 12 13 9 14 15 13 11 10 10 8 9 10 12 11 9 10 11 10 11 14 10 11 12 13 13 13 12 11 11 11 11 12 12 11 10 10 10
1 2 4 2 9 10 4 7 6 4 8 12 8 8 16 17 15 13 12 11 10 9 9 10 9 10 10 11 11 11 11 13 12 12 11 14 14 12 11 10 9 10 9 9 10 9 9 8 8
1 2 5 4 5 6 5 6 5 4 10 7 3 6 21 19 16 14 12 11 10 8 8 5 10 9 7 10 12 13 12 11 13 13 9 10 8 9 10 11 8 8 7 8 7 7 7 8 8
3 2 5 6 7 4 4 2 5 7 10 9 11 15 20 19 16 14 12 11 11 10 11 8 9 7 10 8 9 12 7 6 7 6 6 6 6 9 10 9 7 6 5 6 5 5 6 12 6
2 2 6 8 10 7 2 3 3 9 7 10 14 20 20 18 14 12 11 10 11 11 8 9 9 7 10 5 8 6 5 5 5 7 6 6 7 7 6 6 6 7 6 5 7 8 3 5 2
6 8 4 7 11 2 6 2 4 3 7 3 16 18 18 16 14 12 11 11 11 10 10 11 10 6 6 7 6 6 7 6 6 7 6 6 5 4 3 4 4 3 2 3 2 4 3 1 2
5 7 7 5 5 7 5 5 3 7 5 13 16 17 16 14 13 10 9 10 10 11 10 10 11 8 6 5 5 6 6 5 8 7 6 4 5 4 4 3 3 2 3 3 2 3 4 4 6
6 10 10 8 8 9 7 5 4 7 8 13 15 15 15 13 12 10 9 10 10 10 10 11 10 8 9 6 6 5 5 6 5 6 7 4 3 2 4 3 4 4 2 2 2 3 2 3 8
12 12 10 6 5 6 12 3 2 4 5 12 15 13 12 11 10 10 10 11 11 10 11 12 11 10 9 8 7 5 6 7 6 6 5 4 3 4 2 4 3 4 3 3 3 3 3 5 7
5 7 7 5 7 8 8 6 13 7 9 12 15 13 12 12 11 9 10 10 11 11 11 12 10 12 10 9 7 6 5 6 5 6 5 4 5 3 3 4 4 3 1 0 1 3 4 4 6
8 3 3 7 5 5 10 3 16 12 6 11 14 15 13 12 11 10 11 10 12 11 12 11 11 11 11 9 7 6 6 5 5 5 4 5 5 4 2 3 4 1 2 2 1 4 3 4 5
8 5 3 5 7 8 7 4 13 12 12 13 14 15 13 14 15 13 12 11 12 12 12 10 9 11 9 8 6 6 6 5 5 5 4 6 4 4 4 4 2 2 1 4 3 2 3 2 2
2 2 1 4 8 8 7 6 12 16 14 13 12 14 17 15 14 14 12 12 13 13 12 12 11 11 9 8 8 7 8 6 6 5 5 4 3 2 4 3 3 2 2 4 3 4 4 4 2
4 2 4 5 6 7 4 8 10 12 17 14 15 19 17 18 15 14 14 14 14 14 13 12 11 10 9 8 7 7 7 7 6 5 6 5 5 4 3 1 2 1 2 3 2 2 2 2 2
8 6 3 6 7 9 6 11 12 12 12 11 21 20 20 18 16 16 15 15 14 14 14 12 11 12 11 10 7 6 4 4 4 5 6 7 6 5 3 3 3 2 5 3 1 1 4 2 3
10 4 2 1 6 4 5 2 12 15 16 14 22 19 18 18 17 16 17 16 16 15 13 13 12 12 12 11 10 10 9 8 7 7 4 6 7 5 4 3 4 3 4 2 1 1 5 5 1
3 1 5 5 8 9 8 8 8 14 18 20 22 22 21 19 17 16 17 17 15 15 14 13 12 12 13 12 9 8 9 7 7 6 7 5 6 6 6 4 4 4 5 2 2 3 3 3 6
4 6 5 6 8 11 3 10 7 8 16 16 22 22 21 20 18 17 16 16 15 14 14 14 14 12 12 11 11 12 11 7 7 7 8 7 8 8 7 6 5 4 4 5 3 0 1 4 3
11 12 9 7 7 6 2 7 9 3 3 11 17 23 20 20 19 18 16 16 16 16 16 14 15 14 13 13 12 12 10 10 8 7 8 6 7 7 9 8 7 6 5 5 4 4 1 2 3
15 16 10 5 6 6 3 6 9 8 6 9 13 16 21 22 20 19 18 17 17 17 16 16 16 15 15 14 13 11 9 6 8 9 6 7 6 6 6 8 7 7 6 6 5 6 6 4 4
13 11 13 5 12 7 6 6 9 3 8 2 8 11 18 22 19 19 19 18 18 17 17 17 16 15 15 15 13 11 10 11 9 7 8 7 7 6 7 9 8 8 8 7 7 7 5 4 5
12 9 10 9 4 6 6 2 9 11 10 5 7 8 13 19 16 17 17 18 17 17 16 16 16 16 15 14 13 11 12 12 10 8 9 10 5 7 6 8 8 9 9 8 8 7 7 6 6
9 11 10 2 7 4 4 5 7 8 9 10 4 6 12 14 15 16 15 16 17 16 16 16 15 16 15 15 14 13 12 12 10 9 9 9 8 8 9 8 9 9 10 9 8 8 7 8 8
10 12 12 6 9 3 6 3 6 6 7 10 4 3 3 5 9 13 10 11 13 16 15 15 15 15 15 15 13 13 12 11 11 10 9 8 8 9 9 9 9 10 10 11 10 10 9 9 10
Wind_Direction
197 207 251 230 227 205 118 111 109 121 132 109 112 91 74 24 5 76 119 124 128 129 123 120 105 108 101 96 100 100 103 104 100 103 93 94 91 90 91 94 100 102 91 88 86 85 86 94 96
199 228 236 262 218 127 103 122 129 141 121 119 113 127 78 73 82 114 122 133 135 126 126 114 111 107 104 102 106 105 104 105 98 90 96 91 93 93 92 94 89 93 91 88 88 93 89 93 92
196 253 268 289 328 93 113 137 128 116 131 136 105 49 37 79 119 99 116 132 131 117 108 99 107 104 105 107 111 107 97 108 102 98 97 96 90 91 92 95 92 88 82 88 88 96 97 97 97
249 104 220 246 106 86 109 134 129 135 128 57 113 93 90 103 104 118 133 136 126 132 102 115 112 108 112 108 107 102 102 103 100 100 100 102 102 94 94 94 94 88 87 89 93 97 98 99 98
233 186 180 93 99 99 105 124 136 144 116 119 33 109 107 94 110 128 131 142 128 128 121 118 110 102 116 113 107 108 104 106 106 104 95 103 98 101 98 96 100 91 92 89 88 107 100 96 100
222 252 155 127 112 107 107 130 134 115 130 118 119 124 89 117 135 134 135 138 134 119 113 126 111 105 110 120 110 111 108 103 103 103 100 99 93 94 95 94 95 93 85 82 90 103 97 93 97
292 334 94 130 124 113 94 139 124 145 140 130 135 133 116 141 129 133 142 127 127 126 112 129 129 119 108 117 123 116 121 104 104 105 101 107 103 94 95 101 101 94 92 87 91 98 100 99 92
257 25 125 123 154 113 80 92 110 109 73 113 141 155 154 136 140 139 142 138 132 137 117 126 160 125 144 125 114 102 102 122 111 110 105 106 105 105 111 125 100 97 95 91 93 92 88 111 100
264 156 154 164 140 107 93 124 82 93 141 139 89 150 132 145 149 149 146 136 147 139 126 137 130 125 124 124 117 112 117 103 108 107 107 180 108 127 123 70 102 107 107 102 102 103 99 131 136
280 135 133 158 140 165 59 37 112 145 138 133 108 107 132 150 156 157 160 157 149 146 136 181 108 143 140 123 128 110 111 108 103 120 124 110 98 52 83 92 102 98 105 115 119 125 189 225 139
84 63 120 145 146 187 170 135 164 149 164 152 147 141 149 158 163 165 161 158 156 145 143 139 141 165 117 140 130 131 116 139 127 116 118 107 136 148 122 137 157 147 199 167 184 182 225 39 19
110 74 57 132 161 146 166 330 88 72 27 133 143 146 152 166 168 165 160 157 144 144 158 143 138 127 133 151 132 140 131 135 141 111 136 140 137 131 110 100 110 160 125 124 258 98 45 88 137
120 103 92 120 134 143 22 40 94 53 85 130 137 149 157 168 161 151 148 148 156 159 156 147 144 144 134 150 145 121 121 144 122 154 126 134 122 113 126 117 116 71 144 100 115 74 45 112 113
113 101 111 133 114 132 97 18 40 7 126 142 152 159 166 166 155 148 156 156 162 160 159 142 154 156 140 154 144 136 159 128 157 140 128 152 130 122 127 136 128 115 91 94 71 39 44 86 106
133 124 123 137 143 100 104 336 142 297 244 166 175 171 168 166 162 162 158 159 161 166 155 151 160 161 158 160 155 167 160 158 150 134 155 137 206 126 125 118 147 99 117 188 175 188 157 122 110
201 185 190 123 175 149 192 182 213 215 264 187 182 179 180 169 174 172 163 168 151 152 158 162 168 162 165 150 162 161 157 162 158 152 158 148 132 130 185 161 108 91 114 183 151 179 131 125 127
186 218 182 153 202 163 211 162 180 191 214 266 192 183 192 181 188 177 166 172 154 154 161 168 161 160 159 149 166 170 147 184 158 161 165 142 152 139 197 142 104 202 105 76 180 149 154 139 142
170 204 202 159 172 208 198 154 174 184 195 220 243 196 195 196 188 176 172 170 168 162 165 169 157 153 165 154 166 170 164 169 165 174 158 166 155 167 217 119 107 277 145 93 69 128 136 160 166
34 337 5 121 165 199 205 206 181 192 201 215 236 233 192 208 178 169 175 173 171 170 175 171 168 161 160 164 165 165 171 162 175 179 150 151 154 140 170 139 179 227 88 46 138 166 176 153 150
232 164 110 120 157 246 195 205 178 194 208 214 227 241 209 202 185 176 180 175 178 178 182 176 183 175 182 165 170 178 170 174 173 178 169 182 188 187 172 294 205 318 131 95 119 246 175 165 156
227 270 134 349 181 228 246 224 178 203 189 210 222 229 220 199 196 178 187 183 181 177 185 179 189 180 193 174 167 167 130 118 176 172 194 180 196 204 202 212 286 239 282 131 85 175 287 141 147
219 196 219 214 256 312 226 292 195 184 196 207 206 218 214 207 200 184 188 190 186 178 185 177 185 186 190 192 181 179 180 180 183 184 189 166 185 180 187 223 225 243 305 337 131 358 328 301 166
349 217 191 274 271 284 206 260 116 177 202 196 212 210 208 199 206 199 190 189 190 179 181 180 184 184 189 192 202 180 222 171 186 165 167 220 168 194 197 188 198 213 245 173 293 324 339 298 314
106 202 221 253 271 258 195 256 120 163 228 209 200 210 210 205 198 198 199 189 191 183 186 179 180 187 196 196 203 207 203 208 189 189 188 190 186 192 199 200 202 203 229 224 230 285 45 360 10
208 224 234 228 219 261 80 255 68 79 258 245 204 202 208 213 195 200 193 192 192 188 190 185 185 190 192 200 204 203 209 203 205 197 222 203 194 201 177 207 206 201 209 226 237 210 196 249 321
216 236 255 255 282 318 157 228 106 45 351 240 241 208 202 217 203 199 189 194 191 191 195 190 188 196 192 203 211 214 210 207 228 206 234 218 222 203 172 205 209 211 208 213 213 225 240 189 235
188 236 282 277 287 255 168 139 158 25 14 324 209 213 194 208 215 195 187 196 190 190 195 195 191 198 203 207 210 217 214 228 225 217 206 225 264 224 202 212 214 227 218 217 212 240 216 254 237
280 225 213 228 279 268 148 152 60 357 359 356 248 216 221 188 216 198 194 195 192 191 192 197 196 197 200 207 207 210 213 216 224 218 213 238 218 245 270 232 223 217 223 219 220 224 207 229 239
184 221 249 266 292 295 284 5 21 5 355 337 244 225 186 192 205 206 199 198 193 193 194 194 198 199 200 205 208 215 212 218 217 218 222 218 234 236 222 223 230 230 228 221 221 248 263 222 234
299 284 180 179 273 244 226 137 39 28 13 3 47 195 180 163 180 213 205 215 204 196 199 195 195 200 205 204 207 209 215 221 219 220 223 226 210 213 225 233 233 231 225 227 220 234 255 236 239